Regional Weather Roundup
Issued by NWS

Home | Current Version | Previous Version | Graphics & Text | Print | Product List | Glossary On
Versions: 1 2 3 4 5 6 7 8 9 10 11 12 13 14 15 16 17 18 19 20 21 22 23 24 25 26 27 28 29 30 31 32 33 34 35 36 37 38 39 40 41 42 43 44 45 46 47 48 49 50
369
ASUS43 KDMX 211301
RWRIA

WEATHER ROUNDUP FOR IOWA
NATIONAL WEATHER SERVICE DES MOINES IA
700 AM CST SAT JAN 21 2017

NOTE: "FAIR" INDICATES FEW OR NO CLOUDS BELOW 12,000 FEET WITH NO
SIGNIFICANT WEATHER AND/OR OBSTRUCTIONS TO VISIBILITY.

* - THESE STATIONS ARE NOT NWS STATIONS...THUS NOT UNDER NWS
QUALITY CONTROL.  THEY ALSO DO NOT REPORT WEATHER SUCH
AS PRECIPITATION OR FOG.

IAZ001>003-012>014-020>022-031>034-043>046-211400-
   NORTHWEST IOWA

CITY           SKY/WX    TMP DP  RH WIND       PRES   REMARKS
CARROLL *      FOG       37  37 100 CALM      29.37S VSB 1/2
CHEROKEE *     FOG       35  35 100 CALM      29.37R VSB 1/4
DENISON *      FOG       37  37 100 SW3       29.35R VSB<1/4
LE MARS *      FOG       36  36 100 CALM      29.37S VSB<1/4
ORANGE CITY *  FOG       36  36 100 CALM      29.35S VSB 1/2
SHELDON *      FOG       34  34 100 SE5       29.34S VSB 1/4 WCI  30
SIOUX CITY     FOG       38  37  97 W5        29.37R VSB 3/4 WCI  34
SPENCER        FOG       34  34 100 E3        29.37R VSB 1/4
STORM LAKE *   FOG       36  36 100 S3        29.36R VSB<1/4
$$

IAZ055>058-069>071-079>083-090>094-211400-
   SOUTHWEST IOWA

CITY           SKY/WX    TMP DP  RH WIND       PRES   REMARKS
ATLANTIC *     FOG       39  39 100 CALM      29.39R VSB<1/4
AUDUBON *      FOG       39  37  93 S5        29.39R VSB 1/4
CLARINDA *     FOG       39  39 100 SW7       29.43R VSB 1/4 WCI  34
COUNCIL BLFS * FOG       39  39 100 SW6       29.39R VSB 1/4 WCI  35
CRESTON *      FOG       41  41 100 SW8       29.41R VSB<1/4
HARLAN  *      FOG       39  39 100 S7        29.41R VSB 1/4 WCI  34
LAMONI         CLOUDY    42  42 100 W8        29.41R FOG
RED OAK *      FOG       41  39  93 SW5       29.41R VSB 1/4
SHENANDOAH *   FOG       39  39 100 SW6       29.42R VSB 1   WCI  35
$$

IAZ047>049-059>061-072>074-084-211400-
   CENTRAL IOWA

CITY           SKY/WX    TMP DP  RH WIND       PRES   REMARKS
AMES           FOG       39  39 100 SE3       29.39S VSB 1/4
ANKENY *       FOG       41  41 100 CALM      29.41R VSB<1/4
BOONE *        FOG       39  39 100 SW5       29.38R VSB 1/4
CHARITON *     CLOUDY    43  43 100 SW8       29.40R FOG
DES MOINES     FOG       44  43  96 S7        29.40R VSB 1/4
GRINNELL*      FOG       41  41  99 SW6       29.41R VSB<1/4
KNOXVILLE *    FOG       43  43 100 S5        29.39S VSB<1/4
MARSHALLTOWN   FOG       42  42 100 S8        29.39R VSB 1/2
NEWTON *       FOG       43  43 100 SW6       29.39S VSB<1/4
PELLA *        FOG       41  41  99 S3        29.42S VSB<1/4
PERRY *        FOG       37  37  98 S3        29.39R VSB 1/2
$$

IAZ004>006-015-016-023>025-035-036-211400-
   NORTH CENTRAL IOWA

CITY           SKY/WX    TMP DP  RH WIND       PRES   REMARKS
ALGONA *       FOG       36  36 100 CALM      29.37R VSB 1/4
CLARION *      CLOUDY    36  36 100 SE5       29.37S WCI  32
ESTHERVILLE    FOG       32  32 100 CALM      29.36S VSB 1/4
FORT DODGE *   CLOUDY    36  34  93 SW3       29.39R VSB 1/2
MASON CITY     LGT RAIN  34  34 100 SE5       29.39S FOG     WCI  30
FOREST CITY *  RAIN      34  34 100 CALM      29.38R
WEBSTER CITY * FOG       36 N/A N/A S5        29.37R VSB 1/4 WCI  32
IOWA FALLS *   SNOW      37  37  97 S6        29.40R VSB 1/4 WCI  33
$$

IAZ007>011-017>019-026>030-037>042-050>054-066-211400-
   NORTHEAST IOWA

CITY           SKY/WX    TMP DP  RH WIND       PRES   REMARKS
CEDAR RAPIDS   FOG       41  41 100 CALM      29.41R VSB 1/4
CHARLES CITY * FOG       37  37 100 SE8       29.39S VSB 1/4 WCI  31
CLINTON *      LGT RAIN  43  43 100 SE8       29.44S VSB 1/4
DECORAH *      MIX PCPN  37  36  93 SE8       29.39F VSB 3/4 WCI  31
DUBUQUE        FOG       41  41 100 S9        29.43S VSB 1/4
MONTICELLO *   FOG       43  43 100 S5        29.42S VSB 1/4
OELWEIN *      FOG       37  37 100 SE8       29.41R VSB<1/4 WCI  31
WATERLOO       FOG       40  40 100 S5        29.39S VSB 1/2
$$

IAZ064-065-067-068-078-211400-
   EAST CENTRAL IOWA

CITY           SKY/WX    TMP DP  RH WIND       PRES   REMARKS
DAVENPORT      CLEAR     42  41  96 S10       29.43S FOG
IOWA CITY      CLOUDY    44  43  96 S3        29.44R FOG
MUSCATINE *    FOG       39  39 100 CALM      29.43S VSB<1/4
QUAD CITIES    CLEAR     44  42  93 S6        29.42S
$$

IAZ062-063-075>077-085>089-095>099-211400-
   SOUTHEAST IOWA

CITY           SKY/WX    TMP DP  RH WIND       PRES   REMARKS
BURLINGTON     CLEAR     45  43  93 S10       29.42S
FAIRFIELD *    FOG       43  43 100 SW6       29.42R VSB<1/4
FORT MADISON * CLEAR     43  43 100 S8        29.44S
KEOKUK *       CLEAR     48 N/A N/A S13       29.42S
OSKALOOSA *    CLOUDY    41  41  99 SW7       29.42R FOG
OTTUMWA        FOG       43  41  93 SW5       29.41S VSB 1/4
WASHINGTON *   FOG       43  43 100 W7        29.44R VSB<1/4
$$

ABBREVIATIONS USED IN REMARKS
   TC - TEMPERATURES IN CELSIUS
  WCI - WIND CHILL INDEX
   HX - HEAT INDEX
  VSB - VISIBILITY
$$





USA.gov is the U.S. government's official web portal to all federal, state and local government web resources and services.